KA3MCG-13 Weather Reports


time (UTC)temp
C
wind
direction
speed
KPH
gust
KPH
rain 1hr
cm
rain 24hr
cm
rain mn
cm
humidity
%
barometer
mb
20260507160016 15 338 3.2 9.7 0.00 0.10 0.00 43 1010.5
20260507153016 14 293 3.2 14.5 0.00 0.10 0.00 46 1010.8
20260507143016 14 270 3.2 11.3 0.00 0.15 0.00 43 1011.4
20260507140016 12 315 3.2 17.7 0.00 0.43 0.00 47 1011.7
20260507133016 12 113 3.2 11.3 0.00 0.51 0.00 49 1012.3
20260507130016 11 158 1.6 9.7 0.00 0.61 0.00 62 1012.2
20260507123015 11 270 1.6 8.0 0.00 0.66 0.00 63 1011.9
20260507120016 10 0.0 6.4 0.00 0.69 0.00 66 1012.0
20260507113016 10 0.0 6.4 0.00 0.79 0.00 72 1012.1
20260507110020 9 0.0 3.2 0.00 0.86 0.00 78 1011.6
20260507103019 9 0.0 0.0 0.00 0.89 0.00 79 1011.6
20260507100019 10 0.0 3.2 0.00 0.89 0.00 78 1010.9
20260507093039 10 0.0 1.6 0.00 0.89 0.00 79 1011.0
20260507090040 11 0.0 3.2 0.00 0.89 0.00 78 1010.8
20260507083036 11 293 1.6 6.4 0.00 0.89 0.00 72 1010.7
20260507080036 11 315 1.6 8.0 0.00 0.89 0.00 83 1010.4
20260507073015 11 0.0 3.2 0.00 0.89 0.00 86 1010.3
20260507070015 11 0.0 6.4 0.00 0.89 0.00 87 1010.5
20260507063015 11 0.0 3.2 0.00 0.89 0.00 86 1010.7
20260507060015 11 0.0 3.2 0.00 0.89 0.00 86 1010.7
20260507053035 12 0.0 3.2 0.00 0.89 0.00 85 1010.3
20260507050035 12 180 1.6 6.4 0.00 0.89 0.00 84 1010.2
20260507043015 12 113 1.6 4.8 0.00 0.89 0.00 81 1010.4
20260507040015 12 180 1.6 3.2 0.00 0.89 0.89 86 1010.3
20260507033017 13 293 3.2 11.3 0.00 0.89 0.89 83 1009.7
20260507030017 13 113 1.6 6.4 0.00 0.89 0.89 88 1010.1
20260507023017 13 0.0 4.8 0.00 0.89 0.89 86 1009.7
20260507020017 13 113 1.6 9.7 0.00 0.89 0.89 86 1009.7
20260507013017 14 113 3.2 20.9 0.03 0.89 0.89 85 1009.3
20260507010017 15 338 4.8 19.3 0.03 0.89 0.89 84 1009.1
20260507003016 15 270 6.4 20.9 0.00 0.86 0.86 83 1009.0
20260507000017 16 293 8.0 30.6 0.00 0.86 0.86 81 1008.6
20260506233036 16 293 4.8 19.3 0.00 0.86 0.86 84 1007.8
20260506230036 17 270 3.2 16.1 0.00 0.86 0.86 87 1007.8
20260506223017 17 293 1.6 9.7 0.08 0.86 0.86 88 1007.6
20260506220016 18 270 1.6 4.8 0.08 0.86 0.86 87 1007.6
20260506213016 18 248 1.6 8.0 0.00 0.79 0.79 84 1007.2
20260506210022 20 270 1.6 8.0 0.00 0.79 0.79 81 1006.8
20260506203016 20 270 3.2 11.3 0.00 0.79 0.79 82 1006.5
20260506200016 19 248 3.2 19.3 0.00 0.79 0.79 83 1006.6
20260506193016 19 248 4.8 16.1 0.00 0.79 0.79 84 1006.8
20260506190017 17 315 1.6 8.0 0.00 0.79 0.79 89 1006.8
20260506183016 17 248 3.2 9.7 0.00 0.79 0.79 88 1007.0
20260506180016 17 270 1.6 12.9 0.00 0.79 0.79 89 1007.0
20260506173016 17 203 1.6 11.3 0.00 0.79 0.79 90 1006.9
20260506170016 16 203 1.6 6.4 0.00 0.79 0.79 90 1006.9
20260506163016 16 248 1.6 8.0 0.00 0.79 0.79 90 1007.0